Vorticity
12 8 6 11 12 12 11 21 13 5 3 7 5 6 5 11 11 2 4 48 -12 2 3 15 17 4 2 5 3 8 -0 5 5 6 9 8 9 9 7 8 6 5 9 7
-1 -3 1 1 13 6 1 1 -1 -1 1 2 7 9 6 6 9 14 10 4 1 21 14 7 2 0 17 10 -1 4 3 7 6 3 4 12 11 10 9 8 8 7 3 4
7 -3 6 -21 3 9 8 8 24 2 9 7 6 4 4 6 7 6 9 13 11 8 12 10 2 3 7 8 9 5 6 2 4 5 4 11 12 13 12 10 11 13 10 9
11 10 7 16 16 4 7 4 6 5 3 6 6 4 10 11 4 4 6 6 7 12 12 9 13 7 8 9 11 10 8 10 12 7 5 8 9 10 10 8 8 8 7 7
9 26 8 15 6 -4 8 2 3 6 5 7 12 9 7 7 10 11 10 6 6 5 6 12 15 12 14 11 7 12 11 8 6 6 4 2 4 2 4 4 6 4 10 10
6 10 12 15 16 3 5 6 8 6 7 8 4 -0 6 8 7 6 9 11 12 9 9 7 7 12 17 15 11 9 12 11 8 5 7 7 6 4 5 6 4 5 7 8
10 13 10 11 14 10 -0 14 6 7 8 9 11 8 8 9 10 9 9 6 9 12 10 9 9 7 8 8 10 14 14 13 12 10 9 8 8 8 5 6 10 13 16 15
7 12 8 7 7 -3 17 11 5 4 5 5 6 6 5 5 7 10 11 11 11 10 9 13 11 10 10 10 13 13 13 13 14 14 15 16 15 14 14 15 15 13 12 12
2 5 24 8 11 10 10 5 4 6 6 7 8 7 7 8 9 9 7 9 10 11 13 14 12 9 10 14 11 8 12 13 13 12 14 14 14 13 12 12 12 11 10 8
5 15 13 7 9 9 7 6 5 8 8 8 7 8 8 9 9 9 9 9 10 10 10 10 11 14 18 8 9 10 -2 6 4 13 12 9 8 10 9 9 8 7 7 6
4 11 7 6 6 5 6 7 7 6 3 3 4 11 9 4 6 9 10 8 7 6 4 4 6 5 6 10 15 -1 4 8 15 31 13 8 9 11 8 7 9 8 7 6
15 9 6 11 7 8 7 4 7 6 6 5 7 6 5 4 4 5 8 7 7 7 7 5 4 6 7 7 8 8 9 20 18 23 5 -3 7 21 34 28 21 18 12 12
10 16 13 7 6 6 6 7 8 8 8 9 10 10 11 11 11 10 11 9 9 7 6 4 6 7 8 9 12 12 10 8 5 4 7 11 13 11 11 3 2 23 30 21
12 12 13 13 11 11 12 12 12 12 11 9 9 8 8 8 7 8 8 9 9 8 10 15 17 13 8 6 4 5 6 7 4 5 19 18 10 10 7 8 8 8 10 4
10 12 11 11 11 11 10 9 8 8 8 8 9 8 8 7 7 7 7 7 8 8 8 9 10 10 10 15 17 15 9 10 8 13 14 2 21 18 6 5 11 15 14 14
9 10 10 11 9 9 9 6 7 6 7 9 10 10 10 10 10 12 11 10 11 13 14 14 14 15 15 16 13 14 14 8 8 11 12 14 11 17 18 9 10 12 10 11
10 10 10 11 9 8 7 7 7 8 9 10 10 11 10 10 10 11 10 11 11 12 12 12 11 12 11 10 9 11 13 14 12 12 16 16 17 16 15 13 7 8 12 5
5 8 9 9 8 8 7 7 8 9 9 9 10 9 9 10 11 11 12 13 13 13 13 11 13 14 14 13 12 11 12 13 15 18 18 18 18 17 17 18 18 15 12 10
7 7 7 7 7 8 7 7 8 9 10 10 10 9 9 10 12 12 12 12 12 12 12 12 10 9 9 10 11 13 13 12 13 13 15 16 14 15 17 18 21 20 18 3
6 8 7 7 7 7 6 7 7 8 10 11 11 9 10 12 12 12 12 12 11 10 10 8 8 11 13 12 9 8 9 13 14 13 13 15 16 15 16 16 18 21 21 14
7 7 8 7 7 7 6 6 7 8 11 13 13 11 11 12 12 12 13 13 10 10 10 12 11 12 10 9 11 14 12 9 9 11 12 12 11 10 12 17 15 6 9 11
8 8 7 8 7 7 7 7 8 9 11 13 13 13 13 12 11 13 13 13 11 12 11 12 10 10 11 12 11 10 10 10 11 16 19 16 17 15 15 26 23 19 26 17
9 9 9 8 8 9 7 7 9 10 12 13 14 13 13 11 13 14 16 12 13 12 13 12 10 10 10 10 11 12 12 13 7 5 1 2 11 11 10 10 11 13 19 38
9 8 7 9 9 7 8 8 10 11 12 13 14 12 11 11 12 14 12 14 15 13 14 11 9 10 13 14 14 13 10 9 10 10 14 14 11 13 11 8 10 19 19 15
8 8 9 10 8 8 7 9 12 11 12 13 12 11 9 8 9 8 9 10 11 11 11 11 11 12 12 12 13 13 13 11 11 12 13 13 13 13 13 15 18 17 17 19
8 12 10 8 7 6 9 11 11 11 11 12 12 10 9 9 9 10 11 11 12 12 11 12 14 13 13 13 12 11 11 11 13 14 14 14 12 12 15 17 16 15 13 13
10 9 10 7 6 8 11 11 12 11 12 11 10 10 9 10 10 11 12 14 13 12 12 14 15 13 13 14 14 14 13 12 13 15 15 13 11 12 15 15 13 12 12 12
Height
3018 3016 3014 3013 3012 3009 3007 3010 3010 3014 3012 3016 3016 3014 3013 3012 3015 3017 3010 3008 3013 3015 3019 3027 3032 3038 3041 3043 3047 3052 3058 3062 3065 3068 3070 3072 3075 3077 3079 3082 3086 3090 3093 3097
3021 3021 3020 3017 3016 3016 3016 3018 3018 3020 3021 3023 3022 3021 3020 3019 3021 3019 3022 3026 3025 3024 3027 3032 3036 3041 3044 3048 3050 3054 3059 3061 3065 3068 3069 3071 3072 3075 3077 3080 3084 3087 3090 3092
3025 3024 3022 3024 3022 3022 3021 3022 3023 3025 3027 3026 3026 3026 3026 3026 3026 3027 3028 3029 3031 3032 3034 3038 3040 3041 3046 3050 3052 3055 3059 3062 3063 3065 3066 3068 3068 3071 3074 3077 3079 3082 3085 3088
3024 3023 3023 3028 3026 3025 3025 3024 3025 3026 3027 3027 3027 3027 3028 3030 3031 3031 3032 3034 3035 3037 3041 3041 3041 3042 3048 3050 3053 3056 3059 3060 3060 3062 3063 3065 3067 3069 3070 3073 3075 3078 3080 3083
3027 3025 3029 3029 3029 3029 3028 3028 3026 3026 3027 3028 3029 3029 3029 3029 3030 3031 3032 3034 3034 3036 3037 3037 3040 3043 3046 3049 3052 3055 3057 3056 3057 3059 3060 3062 3065 3066 3066 3069 3070 3073 3075 3076
3028 3029 3028 3029 3028 3029 3030 3032 3030 3029 3029 3029 3030 3031 3030 3030 3031 3032 3032 3033 3035 3036 3037 3037 3041 3044 3045 3048 3048 3049 3050 3051 3052 3053 3054 3055 3059 3058 3060 3062 3063 3067 3068 3069
3029 3029 3030 3030 3031 3032 3034 3037 3031 3032 3033 3033 3033 3033 3033 3034 3034 3033 3033 3034 3035 3036 3037 3037 3039 3040 3043 3045 3044 3045 3045 3045 3045 3046 3047 3048 3051 3052 3054 3054 3056 3058 3059 3062
3030 3029 3032 3031 3033 3034 3034 3033 3034 3034 3034 3035 3035 3035 3034 3034 3033 3034 3033 3032 3033 3033 3034 3034 3035 3037 3037 3037 3037 3038 3039 3038 3038 3039 3040 3041 3041 3043 3045 3046 3049 3048 3050 3054
3030 3029 3029 3030 3032 3032 3033 3034 3035 3035 3035 3035 3035 3035 3034 3033 3032 3032 3031 3031 3032 3031 3030 3030 3030 3029 3028 3028 3031 3033 3031 3029 3032 3035 3035 3035 3036 3037 3040 3040 3042 3042 3044 3046
3029 3028 3028 3030 3031 3032 3033 3034 3034 3035 3035 3035 3035 3035 3034 3034 3034 3033 3032 3032 3031 3030 3028 3027 3026 3024 3024 3026 3027 3027 3026 3027 3027 3027 3031 3032 3033 3033 3034 3036 3036 3035 3038 3038
3028 3028 3029 3030 3031 3032 3033 3033 3034 3034 3034 3035 3034 3034 3033 3032 3032 3031 3031 3030 3030 3029 3028 3028 3028 3026 3025 3024 3022 3022 3022 3024 3023 3024 3026 3025 3025 3027 3026 3027 3028 3027 3029 3028
3026 3027 3029 3030 3030 3031 3032 3033 3034 3034 3034 3034 3033 3033 3032 3032 3031 3030 3029 3028 3027 3027 3026 3025 3023 3022 3021 3020 3021 3021 3019 3019 3019 3019 3019 3018 3018 3017 3015 3016 3015 3016 3019 3017
3025 3025 3026 3028 3029 3030 3031 3032 3033 3033 3033 3032 3032 3031 3031 3030 3029 3028 3027 3026 3025 3024 3022 3020 3019 3018 3017 3016 3015 3014 3013 3013 3013 3012 3012 3010 3010 3011 3009 3009 3008 3007 3007 3008
3023 3024 3025 3026 3028 3029 3029 3030 3031 3031 3031 3030 3030 3028 3028 3027 3026 3025 3023 3022 3021 3019 3017 3015 3014 3013 3011 3009 3009 3008 3007 3007 3006 3004 3004 3004 3003 3002 3001 3001 2999 2998 2999 3000
3021 3023 3024 3025 3026 3027 3028 3028 3028 3028 3028 3027 3026 3025 3024 3023 3021 3020 3018 3016 3015 3013 3011 3009 3007 3006 3004 3002 3001 3000 2999 2998 2997 2996 2994 2993 2992 2991 2990 2989 2989 2990 2991 2991
3020 3021 3022 3023 3024 3025 3026 3026 3026 3025 3024 3023 3022 3021 3019 3018 3016 3015 3013 3010 3008 3006 3005 3003 3001 2999 2997 2995 2993 2992 2990 2989 2987 2985 2984 2982 2980 2980 2979 2978 2979 2980 2981 2981
3018 3019 3020 3021 3022 3022 3023 3023 3022 3022 3020 3019 3018 3016 3014 3012 3010 3009 3006 3004 3002 3000 2998 2996 2995 2993 2991 2989 2987 2985 2983 2981 2979 2977 2975 2973 2971 2970 2969 2969 2969 2969 2969 2969
3015 3017 3017 3018 3019 3020 3020 3019 3019 3018 3016 3015 3013 3011 3009 3007 3005 3003 3001 2998 2996 2995 2993 2992 2990 2987 2985 2983 2980 2977 2975 2973 2971 2969 2967 2965 2963 2962 2960 2959 2958 2957 2957 2957
3012 3013 3014 3015 3016 3016 3016 3015 3015 3013 3012 3010 3007 3005 3004 3001 2999 2997 2994 2991 2990 2989 2987 2985 2983 2981 2979 2976 2974 2971 2968 2966 2963 2961 2959 2957 2955 2953 2952 2950 2948 2947 2947 2948
3008 3009 3010 3011 3012 3012 3011 3010 3009 3008 3007 3004 3002 3000 2998 2996 2994 2991 2989 2987 2985 2983 2981 2979 2976 2974 2972 2969 2967 2965 2963 2960 2957 2954 2951 2949 2947 2945 2944 2942 2940 2939 2938 2939
3005 3006 3007 3007 3008 3007 3007 3006 3004 3002 3000 2998 2996 2994 2991 2989 2987 2985 2982 2981 2979 2977 2974 2973 2970 2968 2966 2963 2961 2959 2956 2953 2951 2948 2945 2943 2941 2939 2937 2936 2935 2933 2933 2932
3002 3002 3003 3003 3003 3002 3002 3001 2999 2996 2994 2991 2989 2987 2985 2982 2980 2978 2976 2974 2972 2971 2968 2966 2964 2961 2959 2957 2955 2952 2950 2948 2945 2943 2940 2938 2936 2934 2931 2928 2926 2925 2924 2924
2997 2998 2998 2998 2998 2997 2997 2995 2993 2991 2988 2985 2983 2981 2978 2976 2974 2972 2970 2967 2965 2963 2962 2960 2957 2955 2953 2951 2949 2946 2944 2942 2940 2938 2936 2933 2931 2929 2926 2923 2921 2919 2917 2915
2993 2994 2994 2994 2993 2992 2991 2989 2987 2984 2982 2979 2977 2974 2972 2970 2968 2966 2963 2961 2959 2956 2955 2952 2950 2948 2946 2944 2942 2940 2938 2936 2933 2931 2929 2928 2925 2923 2920 2918 2916 2913 2912 2910
2988 2988 2988 2988 2987 2986 2985 2983 2980 2977 2975 2972 2970 2968 2966 2964 2963 2960 2958 2956 2953 2950 2948 2946 2943 2941 2939 2937 2935 2933 2931 2928 2926 2924 2922 2921 2919 2917 2914 2912 2910 2909 2907 2906
2983 2983 2983 2982 2981 2980 2978 2976 2973 2971 2968 2966 2964 2962 2960 2958 2955 2953 2951 2948 2946 2943 2941 2939 2936 2934 2932 2930 2928 2926 2924 2922 2920 2918 2916 2914 2912 2911 2909 2906 2905 2904 2904 2903
2977 2977 2976 2976 2974 2973 2971 2969 2967 2964 2961 2960 2958 2955 2952 2950 2947 2944 2942 2940 2938 2936 2933 2931 2929 2926 2925 2923 2921 2919 2917 2915 2913 2911 2910 2908 2907 2906 2904 2902 2901 2900 2899 2898